CYGFM04 (41885 NORAD) Tracking and Keplerian Element Data

This shows tracking and keplerian element data for the satellite.

Feedback or suggestion? Click here.




ElementValue
Catalog41885
NameCYGFM04
Epoch Orbit45190
Epoch Day34.98146905
Epoch Year2025
RAAN245.9249
Inclination34.9354
Eccentricity0.0007206
Argument of Perigee186.6596
Mean Anonmoly173.4027
Mean Motion15.37054869
Decay Rate0.00018916
L11 41885U 16078B 25034.98146905 .00018916 00000+0 50705-3 0 9998
L22 41885 34.9354 245.9249 0007206 186.6596 173.4027 15.37054869451908



Live tracking and technical data element details for CYGFM04 (NORAD 41885). CYGFM04 can be tracked NOW for your location showing map with azimuth and elevation plus other details from your city location.







IsCatalogInMostPopularTable: catalog: 41885, numindb: 641
Update: records affected: 1



GetName: 41885 CYGFM04

Hit Count: updated at: Mon, 17 Nov 2025 08:04:19 GMT